When you browse on this site, cookies collect data to enhance your experience and personalize the content and advertising you see.
Visit our Privacy Policy to learn more. By continuing to use the site, you agree to this use of cookies and data.
  • Em Portugal
  • Lista de países
  • Para 7 dias
  • Temperatura da água
  • Mapas de satélite
  • Mapa do tempo
  • Widgets de tempo
  • user-avatar
    Iniciar Sessão

    Previsão horária em Nyíregyháza

    Hoje, 17 Julho, Quarta-feira

    Tempo Temperatura Precipitação Vento Pressão Humidade
    00:00 +17°C° 0 mm 4 m/s 749 mmHg 72%
    01:00 +17°C° 0 mm 4 m/s 749 mmHg 74%
    02:00 +17°C° 0 mm 4 m/s 749 mmHg 72%
    03:00 +17°C° 0 mm 4 m/s 749 mmHg 70%
    04:00 +17°C° 0 mm 4 m/s 749 mmHg 68%
    05:00 +17°C° 0 mm 4 m/s 749 mmHg 68%
    06:00 +18°C° 0 mm 4 m/s 749 mmHg 69%
    07:00 +18°C° 0 mm 4 m/s 749 mmHg 70%
    08:00 +20°C° 0 mm 4 m/s 749 mmHg 65%
    09:00 +21°C° 0 mm 4 m/s 749 mmHg 59%
    10:00 +22°C° 0 mm 3 m/s 749 mmHg 54%
    11:00 +24°C° 0 mm 3 m/s 749 mmHg 53%
    12:00 +24°C° 0 mm 3 m/s 749 mmHg 53%
    13:00 +24°C° 0 mm 2 m/s 748 mmHg 52%
    14:00 +24°C° 0 mm 2 m/s 749 mmHg 52%
    15:00 +24°C° 0 mm 2 m/s 749 mmHg 53%
    16:00 +25°C° 0 mm 2 m/s 749 mmHg 53%
    17:00 +23°C° 0 mm 2 m/s 749 mmHg 59%
    18:00 +21°C° 0 mm 2 m/s 749 mmHg 64%
    19:00 +20°C° 0 mm 2 m/s 748 mmHg 69%
    20:00 +19°C° 0 mm 2 m/s 749 mmHg 68%
    21:00 +20°C° 0 mm 1 m/s 749 mmHg 67%
    22:00 +19°C° 0 mm 1 m/s 750 mmHg 66%
    23:00 +19°C° 0 mm 1 m/s 750 mmHg 68%

    Amanhã, 18 Julho, Quinta-feira

    Tempo Temperatura Precipitação Vento Pressão Humidade
    00:00 +18°C° 0 mm 1 m/s 750 mmHg 70%
    01:00 +17°C° 0 mm 2 m/s 750 mmHg 73%
    02:00 +16°C° 0 mm 2 m/s 750 mmHg 74%
    03:00 +16°C° 0 mm 2 m/s 750 mmHg 74%
    04:00 +16°C° 0 mm 2 m/s 750 mmHg 75%
    05:00 +17°C° 0 mm 2 m/s 750 mmHg 74%
    06:00 +18°C° 0 mm 2 m/s 750 mmHg 73%
    07:00 +19°C° 0 mm 2 m/s 750 mmHg 71%
    08:00 +20°C° 0 mm 2 m/s 750 mmHg 65%
    09:00 +23°C° 0 mm 2 m/s 750 mmHg 59%
    10:00 +24°C° 0 mm 2 m/s 750 mmHg 53%
    11:00 +25°C° 0 mm 1 m/s 750 mmHg 50%
    12:00 +26°C° 0 mm 1 m/s 750 mmHg 48%
    13:00 +25°C° 0 mm 0 m/s 750 mmHg 46%
    14:00 +27°C° 0 mm 1 m/s 750 mmHg 47%
    15:00 +27°C° 0 mm 1 m/s 750 mmHg 47%
    16:00 +27°C° 0 mm 1 m/s 750 mmHg 47%
    17:00 +25°C° 0 mm 1 m/s 750 mmHg 52%
    18:00 +24°C° 0 mm 2 m/s 750 mmHg 58%
    19:00 +21°C° 0 mm 2 m/s 750 mmHg 63%
    20:00 +20°C° 0.2 mm 2 m/s 750 mmHg 67%
    21:00 +19°C° 0.2 mm 2 m/s 751 mmHg 72%
    22:00 +19°C° 0.2 mm 1 m/s 751 mmHg 76%
    23:00 +18°C° 0 mm 1 m/s 751 mmHg 77%

    Depois de amanhã, 19 Julho, Sexta-feira

    Tempo Temperatura Precipitação Vento Pressão Humidade
    00:00 +18°C° 0 mm 1 m/s 751 mmHg 79%
    01:00 +16°C° 0 mm 1 m/s 751 mmHg 80%
    02:00 +16°C° 0 mm 1 m/s 751 mmHg 81%
    03:00 +16°C° 0 mm 1 m/s 752 mmHg 83%
    04:00 +15°C° 0 mm 1 m/s 752 mmHg 85%
    05:00 +18°C° 0 mm 1 m/s 752 mmHg 81%
    06:00 +18°C° 0 mm 2 m/s 752 mmHg 78%
    07:00 +20°C° 0 mm 2 m/s 752 mmHg 74%
    08:00 +22°C° 0 mm 1 m/s 752 mmHg 69%
    09:00 +24°C° 0 mm 1 m/s 752 mmHg 64%
    10:00 +26°C° 0 mm 1 m/s 752 mmHg 59%
    11:00 +27°C° 0 mm 1 m/s 752 mmHg 55%
    12:00 +27°C° 0 mm 1 m/s 752 mmHg 51%
    13:00 +28°C° 0 mm 1 m/s 752 mmHg 47%
    14:00 +29°C° 0 mm 2 m/s 752 mmHg 47%
    15:00 +29°C° 0 mm 2 m/s 752 mmHg 47%
    16:00 +29°C° 0 mm 2 m/s 752 mmHg 47%
    17:00 +27°C° 0 mm 2 m/s 752 mmHg 53%
    18:00 +26°C° 0 mm 1 m/s 752 mmHg 59%
    19:00 +24°C° 0 mm 1 m/s 752 mmHg 65%
    20:00 +23°C° 0.2 mm 1 m/s 752 mmHg 67%
    21:00 +22°C° 0.2 mm 1 m/s 752 mmHg 69%
    22:00 +21°C° 0.2 mm 1 m/s 753 mmHg 71%
    23:00 +21°C° 0.4 mm 1 m/s 753 mmHg 73%

    20 Julho, Sábado

    Tempo Temperatura Precipitação Vento Pressão Humidade
    00:00 +20°C° 0.4 mm 1 m/s 753 mmHg 76%
    01:00 +20°C° 0.4 mm 1 m/s 753 mmHg 79%
    02:00 +20°C° 0.3 mm 1 m/s 753 mmHg 81%
    03:00 +19°C° 0.3 mm 1 m/s 753 mmHg 84%
    04:00 +19°C° 0.3 mm 1 m/s 753 mmHg 86%
    05:00 +20°C° 0.1 mm 1 m/s 753 mmHg 84%
    06:00 +21°C° 0.1 mm 1 m/s 753 mmHg 81%
    07:00 +23°C° 0.1 mm 1 m/s 753 mmHg 79%
    08:00 +24°C° 0.4 mm 1 m/s 753 mmHg 73%
    09:00 +26°C° 0.4 mm 2 m/s 753 mmHg 67%
    10:00 +28°C° 0.4 mm 2 m/s 753 mmHg 60%
    11:00 +29°C° 0.4 mm 2 m/s 753 mmHg 57%
    12:00 +29°C° 0.4 mm 2 m/s 753 mmHg 54%
    13:00 +30°C° 0.4 mm 2 m/s 753 mmHg 51%
    14:00 +30°C° 0 mm 2 m/s 753 mmHg 52%
    15:00 +30°C° 0 mm 2 m/s 753 mmHg 52%
    16:00 +30°C° 0 mm 2 m/s 753 mmHg 53%
    17:00 +29°C° 0 mm 2 m/s 753 mmHg 57%
    18:00 +28°C° 0 mm 1 m/s 753 mmHg 61%
    19:00 +26°C° 0 mm 1 m/s 753 mmHg 65%
    20:00 +25°C° 0.3 mm 1 m/s 753 mmHg 68%
    21:00 +24°C° 0.3 mm 1 m/s 754 mmHg 71%
    22:00 +23°C° 0.3 mm 1 m/s 754 mmHg 73%
    23:00 +22°C° 0.3 mm 1 m/s 754 mmHg 76%

    21 Julho, Domingo

    Tempo Temperatura Precipitação Vento Pressão Humidade
    00:00 +22°C° 0.3 mm 1 m/s 754 mmHg 80%
    01:00 +21°C° 0.3 mm 1 m/s 754 mmHg 83%
    02:00 +21°C° 0.1 mm 1 m/s 754 mmHg 84%
    03:00 +20°C° 0.1 mm 1 m/s 754 mmHg 86%
    04:00 +20°C° 0.1 mm 1 m/s 754 mmHg 88%
    05:00 +21°C° 0 mm 1 m/s 754 mmHg 85%
    06:00 +23°C° 0 mm 1 m/s 754 mmHg 81%
    07:00 +24°C° 0 mm 1 m/s 754 mmHg 77%
    08:00 +25°C° 0.1 mm 1 m/s 754 mmHg 73%
    09:00 +27°C° 0.1 mm 1 m/s 754 mmHg 68%
    10:00 +28°C° 0.1 mm 1 m/s 754 mmHg 63%
    11:00 +29°C° 0.1 mm 2 m/s 754 mmHg 59%
    12:00 +30°C° 0.1 mm 2 m/s 754 mmHg 55%
    13:00 +31°C° 0.1 mm 2 m/s 754 mmHg 51%
    14:00 +30°C° 0.7 mm 2 m/s 754 mmHg 58%
    15:00 +29°C° 0.7 mm 3 m/s 754 mmHg 64%
    16:00 +28°C° 0.7 mm 3 m/s 753 mmHg 70%
    17:00 +26°C° 2.1 mm 3 m/s 753 mmHg 77%
    18:00 +25°C° 2.1 mm 3 m/s 753 mmHg 84%
    19:00 +22°C° 2.1 mm 3 m/s 753 mmHg 91%
    20:00 +21°C° 0.4 mm 2 m/s 754 mmHg 92%
    21:00 +21°C° 0.4 mm 2 m/s 754 mmHg 92%
    22:00 +21°C° 0.4 mm 1 m/s 754 mmHg 93%
    23:00 +21°C° 0.1 mm 1 m/s 754 mmHg 93%

    22 Julho, Segunda-feira

    Tempo Temperatura Precipitação Vento Pressão Humidade
    00:00 +21°C° 0.1 mm 1 m/s 754 mmHg 93%
    01:00 +20°C° 0.1 mm 1 m/s 754 mmHg 93%
    02:00 +20°C° 0 mm 1 m/s 754 mmHg 94%
    03:00 +20°C° 0 mm 1 m/s 754 mmHg 94%
    04:00 +19°C° 0 mm 1 m/s 753 mmHg 94%
    05:00 +21°C° 0.1 mm 1 m/s 754 mmHg 91%
    06:00 +21°C° 0.1 mm 2 m/s 754 mmHg 88%
    07:00 +23°C° 0.1 mm 2 m/s 754 mmHg 84%
    08:00 +24°C° 0.4 mm 2 m/s 754 mmHg 80%
    09:00 +26°C° 0.4 mm 3 m/s 754 mmHg 75%
    10:00 +27°C° 0.4 mm 3 m/s 754 mmHg 70%
    11:00 +28°C° 0.2 mm 3 m/s 754 mmHg 65%
    12:00 +28°C° 0.2 mm 3 m/s 753 mmHg 61%
    13:00 +29°C° 0.2 mm 2 m/s 753 mmHg 56%
    14:00 +29°C° 0.1 mm 2 m/s 753 mmHg 56%
    15:00 +29°C° 0.1 mm 2 m/s 753 mmHg 57%
    16:00 +29°C° 0.1 mm 2 m/s 753 mmHg 57%
    17:00 +27°C° 0.1 mm 2 m/s 753 mmHg 62%
    18:00 +26°C° 0.1 mm 2 m/s 753 mmHg 67%
    19:00 +24°C° 0.1 mm 2 m/s 752 mmHg 72%
    20:00 +23°C° 0 mm 2 m/s 753 mmHg 74%
    21:00 +22°C° 0 mm 3 m/s 753 mmHg 76%
    22:00 +21°C° 0 mm 3 m/s 753 mmHg 78%
    23:00 +20°C° 0 mm 3 m/s 753 mmHg 79%
    Mostrar mais